Wind_Speed
32 34 34 34 32 33 35 36 38 35 34 33 36 38 37 37 38 38 38 38 39 41 43 45 47 50 53 56 59 62 65 68 71 74 76 79 81 83 85 87 89 91 92 93
34 35 37 36 33 35 36 38 39 39 37 36 36 37 38 38 39 39 39 41 42 44 46 49 52 54 57 60 64 67 70 72 75 78 80 82 84 86 88 90 92 92 92 91
36 36 38 37 34 36 38 39 40 40 39 37 36 37 38 38 39 41 42 44 45 47 50 53 56 58 61 65 68 71 74 77 79 81 83 85 87 89 91 92 92 91 88 85
40 39 40 38 37 37 39 39 39 39 39 38 37 38 39 40 41 43 45 46 48 51 53 56 59 63 66 69 72 75 78 80 82 84 86 88 89 91 91 91 89 86 81 77
43 43 43 39 39 39 40 39 38 39 39 39 39 40 41 42 43 45 47 49 51 54 57 60 63 66 69 72 75 78 80 82 84 86 88 89 90 90 89 87 83 78 73 68
44 45 45 40 39 40 40 40 37 38 39 40 40 41 42 43 45 47 50 52 54 57 60 64 67 70 73 76 78 80 82 84 86 88 90 90 89 87 84 80 75 70 65 62
44 46 45 42 41 41 41 40 39 39 39 39 41 42 43 45 48 50 52 55 58 61 64 67 71 73 76 78 80 82 84 86 87 89 89 88 86 82 77 72 68 63 60 57
44 45 45 44 43 43 42 42 41 40 40 41 42 44 46 48 50 53 55 58 61 64 67 70 73 76 78 80 82 83 85 87 87 87 86 83 79 74 69 65 61 58 55 53
44 45 45 45 45 44 43 42 41 42 42 43 44 46 48 50 53 55 58 61 64 67 70 73 76 78 80 82 83 85 86 87 86 85 81 77 72 67 63 60 57 55 53 50
45 44 45 45 45 44 43 42 42 43 44 45 47 49 50 53 56 58 62 65 68 70 73 75 77 79 82 83 85 86 86 86 84 81 75 70 65 62 59 56 54 52 50 48
44 44 45 44 44 43 43 43 44 45 46 48 49 51 53 56 59 62 65 68 70 73 75 77 79 81 82 84 86 86 85 83 79 74 69 63 59 56 55 53 52 51 49 47
44 43 43 43 43 43 43 44 45 47 48 50 52 54 57 60 63 66 68 71 73 75 77 78 80 82 83 85 86 86 83 78 73 68 63 58 55 51 50 50 49 48 47 46
44 42 42 42 42 43 44 46 47 48 50 53 55 58 60 63 66 68 71 73 75 77 78 80 81 83 84 86 85 82 77 72 67 62 58 55 52 50 47 44 44 45 45 43
42 42 41 41 42 44 45 47 49 51 53 56 58 61 64 66 68 71 73 75 76 78 79 81 82 84 84 84 81 75 70 65 62 58 55 52 50 48 46 44 41 40 41 40
41 41 41 42 44 46 47 49 52 54 56 58 61 64 66 68 70 72 74 76 77 78 80 82 83 83 82 79 74 69 64 60 57 54 52 50 48 46 44 43 41 39 37 37
40 41 43 45 47 48 50 52 54 57 59 61 64 66 68 70 71 73 75 76 78 80 81 83 83 80 77 73 68 63 58 56 53 50 48 47 45 44 42 41 40 38 36 36
41 43 45 47 48 50 53 55 57 59 61 64 66 67 69 71 73 74 75 77 79 80 81 82 80 75 71 67 63 58 54 50 48 46 45 44 43 42 41 39 37 36 35 34
44 45 47 49 51 53 55 57 59 62 64 65 67 69 71 73 74 75 77 78 79 79 79 78 74 70 65 62 57 52 49 46 44 43 42 42 41 40 39 37 35 34 33 33
46 48 49 51 53 55 58 60 61 63 65 68 70 71 73 74 76 77 78 79 79 78 75 71 67 64 60 55 51 47 44 42 41 40 40 40 39 38 36 35 33 32 32 32
48 50 52 54 56 58 60 62 64 66 68 70 72 73 74 76 77 78 79 78 76 75 71 66 62 57 53 48 44 42 40 39 39 38 38 37 36 35 34 33 31 31 31 30
51 53 55 56 58 60 62 65 67 69 70 72 74 75 76 77 78 78 77 75 71 69 65 60 56 51 47 42 40 38 37 37 37 37 36 35 34 33 32 30 29 29 29 28
53 55 57 59 61 63 65 67 69 71 72 74 75 77 77 77 77 75 73 71 67 63 58 53 49 45 41 38 36 35 35 36 36 35 34 33 32 31 29 28 28 27 27 26
56 58 60 62 64 65 67 69 71 73 74 75 76 77 77 76 75 73 68 64 61 57 52 48 44 40 37 35 34 34 34 34 34 34 32 31 30 29 27 26 26 26 25 25
59 61 63 65 67 69 70 71 73 74 75 76 76 76 76 74 70 67 64 60 55 51 46 42 39 35 33 32 32 33 33 33 32 32 31 29 28 27 26 25 25 24 23 23
62 64 66 68 70 71 73 74 74 75 75 75 74 73 72 70 66 62 58 54 49 45 41 37 35 33 32 31 32 32 32 32 31 30 28 27 26 25 25 24 24 22 22 21
65 67 69 71 72 74 75 75 75 74 74 73 70 68 65 63 60 56 52 47 43 40 37 34 32 31 31 31 31 31 30 30 29 28 26 25 24 24 23 22 21 20 19 18
68 69 71 72 73 74 75 74 74 72 71 69 66 62 59 56 52 48 45 41 39 36 34 32 31 31 30 30 30 29 29 28 27 25 24 23 22 21 20 19 19 17 16 15
Wind_Direction
267 269 270 271 273 275 278 282 285 288 289 289 286 287 287 286 285 286 287 288 291 293 294 296 297 298 299 301 302 303 304 304 304 305 305 304 304 304 304 304 303 303 303 302
268 269 270 271 274 277 280 284 286 288 290 287 285 285 285 285 285 286 288 290 292 294 295 296 297 299 300 302 303 304 304 305 305 305 305 305 305 305 305 305 305 305 304 304
269 269 271 272 274 277 280 283 285 287 288 286 284 283 283 284 285 286 288 290 292 294 295 297 298 300 301 302 304 305 305 306 306 306 307 307 307 307 307 307 306 306 306 305
271 270 271 275 277 279 280 282 284 285 285 284 283 282 282 283 285 287 289 291 293 295 297 298 300 301 303 304 305 306 307 307 308 308 308 308 309 309 308 308 308 307 306 306
272 273 273 275 279 281 281 282 283 284 282 282 282 282 282 284 285 288 290 292 294 296 298 300 301 303 304 306 307 307 308 309 309 309 310 310 310 310 309 309 309 308 308 307
272 274 276 278 278 280 281 282 282 281 281 281 282 282 284 286 288 290 292 294 296 298 300 302 303 305 306 307 308 309 309 310 310 311 311 311 311 311 310 310 309 309 309 309
272 274 277 281 281 281 282 283 282 282 282 282 283 284 285 287 289 292 294 296 298 300 302 304 305 306 307 308 309 310 311 311 312 312 312 312 312 311 310 310 310 310 310 311
270 274 278 279 281 282 282 283 283 283 283 283 284 285 287 289 292 294 296 298 300 302 304 306 307 308 309 309 310 311 312 312 312 313 313 312 312 311 310 310 310 311 311 311
271 274 276 278 279 281 282 282 283 283 283 284 285 287 289 291 293 296 298 300 302 304 305 307 308 309 310 310 311 312 312 313 313 313 313 312 311 311 311 310 311 311 312 312
272 273 275 277 278 280 281 282 282 283 284 285 287 289 291 293 295 297 300 302 304 305 307 308 309 310 311 311 312 313 313 313 313 313 312 312 311 311 311 311 311 311 312 312
272 273 274 276 278 280 281 282 282 283 285 287 289 291 293 295 298 300 302 304 305 307 308 309 310 311 312 312 313 313 314 314 313 313 312 312 311 312 312 312 312 313 313 313
272 273 274 276 278 279 280 281 283 285 287 289 291 293 296 298 300 302 304 305 307 308 309 309 310 311 312 312 313 314 314 314 313 312 312 312 311 312 312 312 313 313 314 314
271 272 274 276 277 278 280 282 284 287 289 291 294 296 298 300 301 303 305 306 307 308 309 310 311 312 312 313 314 314 314 313 313 313 313 312 312 312 312 312 312 313 313 313
272 273 274 276 277 279 281 283 286 288 291 293 296 297 299 301 302 304 305 307 308 309 310 310 311 312 312 313 313 313 313 313 312 313 313 313 313 313 313 313 313 313 313 313
270 272 274 276 277 280 282 285 288 291 293 295 297 298 300 302 303 305 306 307 308 309 309 310 311 312 312 312 312 312 312 312 312 312 313 313 313 313 313 314 315 315 315 314
269 271 273 276 279 282 284 287 290 292 294 296 297 299 301 302 304 305 306 307 308 309 309 310 311 311 311 311 311 311 311 311 312 312 313 313 313 313 314 315 316 316 316 316
270 273 275 278 281 284 287 289 291 293 295 296 298 300 301 302 303 304 305 306 307 309 309 310 310 311 310 310 310 310 310 310 311 312 313 313 313 314 314 315 316 317 318 318
273 276 279 281 284 287 289 291 293 294 296 297 299 300 302 303 303 304 305 306 307 308 309 309 310 310 310 309 309 310 310 310 311 311 312 313 314 314 315 315 316 318 319 319
277 280 282 285 287 289 291 293 294 296 297 298 300 301 302 303 304 305 306 307 308 308 309 308 308 309 309 309 309 309 309 310 311 312 312 313 314 315 315 316 317 318 319 320
280 283 285 288 289 291 292 294 295 297 298 299 300 301 302 303 304 305 306 308 308 308 309 308 308 308 308 308 308 308 308 310 311 312 313 313 314 315 315 315 316 318 319 321
284 286 288 289 291 292 294 295 296 297 298 300 300 301 302 303 304 305 307 307 308 307 308 308 307 307 307 306 306 307 307 309 310 312 313 313 314 315 315 315 316 318 319 320
286 288 289 291 292 293 294 295 296 298 299 299 300 301 302 303 304 305 307 307 307 307 307 307 306 306 305 305 305 305 307 309 310 312 312 313 315 316 315 315 316 318 319 320
288 289 290 291 292 293 294 295 296 298 299 300 301 302 302 304 305 306 306 306 306 306 306 306 305 305 304 303 304 305 307 309 310 311 312 313 315 316 315 316 317 318 319 320
289 290 291 292 293 294 295 296 297 298 299 300 301 302 303 304 304 305 305 306 305 305 305 305 304 303 302 302 304 305 307 309 310 311 312 313 314 315 315 316 318 318 319 320
290 291 292 293 294 295 296 297 298 299 299 300 301 302 303 303 304 304 304 304 304 304 304 303 302 302 301 302 304 306 307 308 309 310 310 311 313 314 314 316 317 318 318 320
291 292 293 294 295 296 297 298 299 299 300 300 301 301 301 302 302 303 303 302 302 302 302 301 300 300 301 302 304 306 306 307 308 309 310 311 312 313 315 316 318 319 319 321
292 293 294 295 296 296 297 298 299 300 300 300 300 301 301 301 301 301 301 300 300 300 300 299 299 300 301 302 303 304 305 306 307 308 308 310 311 313 314 316 318 320 321 324
Height
5761 5761 5760 5761 5762 5760 5758 5757 5755 5755 5754 5752 5746 5743 5740 5738 5735 5732 5730 5727 5725 5722 5718 5714 5710 5705 5700 5694 5688 5681 5674 5666 5658 5649 5640 5631 5621 5611 5600 5589 5578 5566 5555 5544
5754 5753 5752 5753 5754 5752 5750 5748 5746 5744 5744 5741 5738 5734 5731 5729 5726 5724 5721 5718 5715 5712 5708 5703 5698 5693 5687 5681 5674 5666 5658 5650 5641 5631 5621 5611 5600 5590 5578 5567 5554 5542 5529 5517
5745 5745 5743 5745 5747 5744 5742 5740 5738 5736 5734 5731 5729 5726 5723 5720 5718 5715 5712 5709 5705 5701 5697 5692 5686 5681 5674 5667 5659 5651 5642 5632 5622 5612 5602 5591 5579 5567 5555 5543 5531 5518 5505 5492
5735 5736 5735 5739 5737 5735 5733 5731 5729 5726 5724 5721 5719 5716 5714 5711 5708 5705 5702 5698 5694 5690 5685 5679 5673 5667 5659 5651 5643 5634 5624 5613 5602 5591 5581 5569 5557 5544 5532 5519 5507 5494 5482 5471
5725 5724 5724 5729 5727 5724 5722 5721 5720 5716 5714 5712 5709 5706 5704 5701 5698 5695 5691 5687 5683 5678 5672 5666 5659 5652 5644 5635 5626 5616 5606 5595 5583 5570 5559 5548 5535 5522 5509 5496 5485 5473 5462 5451
5716 5714 5714 5719 5717 5714 5713 5711 5710 5706 5704 5702 5699 5697 5695 5691 5687 5683 5679 5675 5670 5664 5658 5651 5644 5636 5628 5618 5609 5598 5587 5575 5562 5549 5537 5525 5512 5499 5487 5474 5464 5454 5445 5435
5706 5703 5704 5707 5705 5703 5703 5702 5699 5696 5694 5692 5689 5687 5684 5680 5676 5671 5667 5662 5657 5650 5644 5636 5628 5620 5611 5601 5590 5580 5568 5556 5543 5529 5516 5503 5491 5479 5466 5456 5447 5438 5430 5422
5697 5695 5697 5695 5694 5693 5691 5690 5687 5685 5683 5681 5678 5675 5672 5668 5664 5659 5654 5649 5643 5636 5629 5620 5611 5602 5593 5583 5573 5562 5550 5537 5524 5510 5496 5482 5471 5460 5450 5439 5431 5423 5416 5409
5688 5689 5686 5684 5682 5681 5680 5679 5677 5674 5672 5670 5667 5664 5660 5656 5651 5646 5641 5635 5628 5621 5613 5604 5593 5583 5574 5564 5553 5542 5531 5518 5505 5492 5479 5465 5453 5444 5435 5426 5417 5410 5402 5396
5677 5676 5674 5672 5671 5670 5669 5668 5665 5663 5661 5658 5655 5652 5648 5643 5638 5633 5626 5620 5612 5605 5597 5587 5577 5566 5555 5544 5533 5523 5511 5499 5486 5473 5463 5451 5440 5430 5421 5413 5405 5397 5390 5383
5665 5664 5663 5662 5660 5659 5658 5656 5654 5652 5649 5646 5643 5639 5635 5630 5624 5618 5611 5604 5596 5588 5579 5570 5559 5548 5536 5524 5514 5503 5492 5479 5468 5456 5445 5436 5428 5418 5409 5401 5391 5384 5378 5371
5654 5653 5652 5652 5650 5649 5647 5645 5642 5640 5637 5634 5630 5626 5621 5615 5609 5602 5595 5587 5579 5571 5561 5552 5541 5531 5518 5506 5494 5483 5472 5461 5450 5440 5431 5422 5414 5408 5400 5390 5382 5374 5366 5360
5642 5642 5642 5641 5639 5637 5635 5633 5631 5628 5624 5621 5616 5611 5606 5600 5593 5586 5579 5570 5562 5553 5543 5533 5523 5512 5500 5488 5477 5465 5453 5444 5434 5425 5417 5409 5401 5394 5388 5383 5374 5365 5357 5350
5631 5631 5631 5630 5628 5626 5624 5621 5618 5615 5611 5607 5602 5596 5591 5585 5578 5570 5562 5553 5544 5535 5525 5515 5505 5494 5482 5471 5460 5449 5438 5429 5420 5412 5404 5396 5389 5382 5375 5369 5364 5358 5350 5342
5621 5620 5619 5618 5616 5614 5612 5609 5606 5602 5598 5593 5587 5581 5575 5569 5562 5554 5545 5536 5527 5518 5507 5497 5487 5476 5465 5454 5444 5434 5425 5416 5408 5400 5393 5385 5378 5371 5365 5358 5352 5347 5341 5334
5610 5609 5608 5606 5604 5602 5599 5596 5592 5588 5583 5578 5572 5566 5559 5552 5545 5537 5528 5518 5509 5500 5490 5479 5469 5459 5448 5437 5428 5420 5412 5403 5395 5388 5382 5375 5368 5361 5355 5349 5343 5337 5331 5326
5599 5598 5596 5595 5592 5589 5586 5582 5578 5573 5568 5562 5556 5550 5543 5536 5529 5521 5512 5503 5492 5482 5471 5459 5451 5441 5431 5421 5413 5406 5399 5392 5385 5378 5371 5364 5358 5351 5345 5340 5334 5329 5323 5317
5587 5586 5584 5582 5579 5576 5572 5567 5563 5557 5552 5546 5540 5533 5526 5518 5511 5503 5495 5486 5476 5466 5454 5442 5433 5424 5416 5407 5400 5393 5386 5380 5374 5368 5361 5355 5349 5343 5337 5331 5326 5321 5316 5310
5575 5573 5570 5567 5564 5561 5556 5552 5546 5541 5535 5528 5522 5516 5508 5500 5491 5483 5475 5466 5456 5447 5439 5428 5418 5409 5401 5394 5387 5381 5375 5369 5364 5358 5352 5346 5340 5334 5329 5323 5318 5313 5308 5303
5561 5559 5556 5553 5549 5545 5540 5535 5529 5524 5517 5510 5504 5497 5490 5482 5473 5464 5457 5448 5437 5426 5419 5411 5403 5395 5388 5382 5376 5370 5365 5360 5354 5349 5343 5338 5332 5327 5321 5316 5311 5307 5302 5297
5547 5545 5541 5537 5533 5528 5523 5517 5512 5506 5500 5492 5485 5478 5471 5464 5455 5445 5437 5430 5422 5411 5403 5395 5388 5382 5376 5370 5365 5360 5356 5351 5345 5340 5335 5329 5324 5319 5314 5309 5305 5300 5296 5291
5533 5529 5526 5521 5517 5513 5507 5500 5494 5488 5482 5475 5466 5458 5451 5444 5436 5428 5420 5410 5403 5396 5388 5382 5375 5369 5364 5360 5355 5351 5346 5342 5336 5331 5326 5321 5316 5312 5307 5303 5298 5294 5290 5285
5517 5514 5509 5505 5500 5496 5490 5483 5476 5470 5463 5456 5448 5439 5431 5424 5416 5408 5403 5396 5387 5380 5374 5368 5363 5358 5354 5350 5346 5342 5337 5333 5328 5323 5318 5314 5309 5305 5300 5296 5292 5288 5284 5280
5501 5497 5492 5487 5481 5476 5472 5466 5458 5451 5443 5436 5429 5419 5410 5404 5399 5391 5382 5377 5371 5366 5361 5356 5351 5347 5343 5340 5336 5333 5328 5324 5320 5315 5311 5306 5302 5298 5294 5290 5287 5283 5279 5275
5484 5479 5474 5469 5463 5457 5451 5445 5440 5433 5425 5418 5411 5402 5392 5384 5379 5374 5368 5362 5357 5353 5349 5345 5341 5337 5334 5331 5327 5324 5320 5315 5311 5307 5304 5300 5296 5292 5288 5285 5281 5277 5274 5270
5466 5461 5456 5450 5443 5436 5430 5424 5418 5412 5404 5398 5393 5385 5377 5369 5363 5358 5353 5349 5344 5341 5337 5334 5331 5328 5325 5322 5318 5315 5311 5307 5304 5300 5296 5293 5290 5286 5283 5279 5276 5273 5269 5266
5447 5442 5436 5431 5424 5416 5409 5403 5397 5391 5384 5377 5373 5368 5361 5354 5349 5344 5340 5336 5333 5330 5327 5324 5321 5318 5316 5313 5310 5306 5303 5300 5296 5293 5290 5287 5284 5281 5278 5275 5272 5269 5266 5263